Погода в Балашихе

Россия / Московская область     55°47′46″N   37°56′17″E
темп.,
°C
ветер,
м/с
пор.,
м/с
влажн.,
%
обл.,
%
осадки,
мм/ч
давл.,
гПа
погр.,
м
11 мая, вт
вт1100:00+6св39754 0.0 1027212
03:00+5ссв39801 0.0 1028203
06:00+6св411780 0.0 1028304
09:00+12св58550 0.0 1028617
12:00+17св57450 0.0 1027853
15:00+19всв56485 0.0 10261012
18:00+18всв47614 0.0 1026844
21:00+13всв389069 0.3 1027187
12 мая, ср
ср1200:00+12ю369435 0.1 1027227
03:00+10ю11925 0.1 102819
06:00+11ссв008630 0.0 102744
09:00+16ссв367758 0.0 1026595
12:00+20в61264100 1.2 10221679
15:00+17вюв71372100 2.9 10211372
18:00+15в71585100 0.9 10201262
21:00+10ююв4109119 1.4 1023611
13 мая, чт
чт1300:00+7вюв24935 0.0 1023125
03:00+6всв249310 0.0 1023113
06:00+8в398940 0.0 1022260
09:00+13вюв378777 0.0 1020448
12:00+14вюв3691100 1.9 1019457
15:00+13вюв369099 3.1 1019407
18:00+16юв248199 0.1 1017638
21:00+12юв229799 0.2 101749
14 мая, пт
пт1400:00+11юв2498100 0.0 101887
03:00+10ю229674 0.0 101834
06:00+11ююв24921 0.0 1018124
09:00+15ююв3571100 0.0 1018457
12:00+19ююв4559100 0.0 1018869
15:00+19юв466295 0.1 1017812
18:00+17в3789100 1.3 1015299
21:00+15в41095100 3.3 1014346
15 мая, сб
сб1500:00+15в31096100 1.8 1012301
03:00+13вюв269990 1.8 1012143
06:00+14вюв1196100 0.0 101143
09:00+18ююв2583100 0.1 1011327
12:00+22ю466071 0.0 10111125
15:00+20ю5872100 2.3 10101090
18:00
21:00+15с2284100 1.9 101027